STARLINK-37244

Last updated on Sun Apr 12 2026 00:02:09 GMT+0000 (Coordinated Universal Time)

1 68529U 26068X 26101.50002315 .00066939 00000+0 34046-3 0 9990 2 68529 53.1599 344.7223 0001053 91.4473 115.4142 15.80847207 3087
UTC large
Height (km)
Speed (km/s)
/
Latitude / Longitude
Inclination (degrees)
Orbital Period (minutes)
Azimuth
Elevation
Range (km)
Doppler Factor

Next 0 passes for location: London (51.5072 / 0.1276)

Sorry there are no passes over London.
STARLINK-37244